Weather in Hořice

Czech Republic     50°22′02″N   15°37′53″E
temp.,
°C
wind,
m/s
gust,
m/s
humid.,
%
clouds,
%
prec.,
mm/h
press.,
hPa
HPBL,
m
21 april, wed
wed2123:00+7s118387 0.8 101410
02:00+6wsw118748 0.8 101510
05:00+5wsw229199 0.1 101516
08:00+8wsw24855 0.3 1015230
11:00+13wsw34705 0.3 1014648
14:00+15w465039 0.7 10132015
17:00+15wnw355280 0.0 10121497
20:00+11nnw336418 0.1 101338
22 april, thu
thu2223:00+7wnw34745 0.0 101445
02:00+5wnw34828 0.0 101562
05:00+5wnw4891100 0.0 1016245
08:00+4wnw6106244 0.0 1019675
11:00+7wnw795299 0.0 10191418
14:00+10wnw7104390 0.0 10192290
17:00+10nw7114842 0.0 10192444
20:00+6wnw6116545 0.1 1021615
23 april, fri
fri2323:00+3w510828 0.0 1022306
02:00+2w499157 0.0 1023232
05:00+1w48979 0.0 1024181
08:00+4w5777100 0.0 10251077
11:00+6wnw796073 0.0 10251390
14:00+9nw810525 0.0 10241450
17:00+10nw7105575 0.0 10241826
20:00+5nw37785 0.0 1025122
24 april, sat
sat2423:00+3wnw36885 0.0 1026106
02:00+2wnw33925 0.0 102655
05:000nnw11935 0.0 102710
08:00+4w12826 0.0 1027258
11:00+8wnw456397 0.1 10261257
14:00+10wsw355561 0.1 10241198
17:00+12nw6751100 0.0 10221960
20:00+6nw496982 0.0 1024185
25 april, sun
sun2523:00+3n338612 0.0 102536
02:00+2ne119217 0.0 102611
05:000n019220 0.0 102710
08:00+4ne127344 0.0 1028293
11:00+8ne11505 0.0 10271233
14:00+11wsw014351 0.0 10251508
17:00+11wsw11435 0.0 10231281
20:00+6s00585 0.0 102210